Regional Weather Roundup
Issued by NWS

Home | Current Version | Previous Version | Text Only | Print | Product List | Glossary Off
Versions: 1 2 3 4 5 6 7 8 9 10 11 12 13 14 15 16 17 18 19 20 21 22 23 24 25 26 27 28 29 30 31 32 33 34 35 36 37 38 39 40 41 42 43 44 45 46 47 48 49 50

000
ASUS43 KMPX 020310
RWRMN
WEATHER ROUNDUP FOR MINNESOTA
NATIONAL WEATHER SERVICE TWIN CITIES/CHANHASSEN MN
1000 PM CDT TUE SEP 01 2015


NOTE: "FAIR" INDICATES FEW OR NO CLOUDS BELOW 12,000 FEET WITH NO
SIGNIFICANT WEATHER AND/OR OBSTRUCTIONS TO VISIBILITY. N/A MEANS
CURRENT SKY AND/OR WEATHER CONDITIONS ARE NOT AVAILABLE.

MNZ060>063-068>070-020400-
   Twin Cities Metro

CITY           SKY/WX    TMP DP  RH WIND       PRES   REMARKS
TWIN CITIES    MOCLDY    81  72  74 S3        29.92R
ST PAUL        PTCLDY    75  73  93 S5        29.92R
CRYSTAL        MOCLDY    80  73  79 CALM      29.90F
BLAINE         MOCLDY    79  75  89 CALM      29.92F
LAKEVILLE      MOCLDY    72  72 100 CALM      29.94R
EDEN PRAIRIE   CLOUDY    77  71  82 S6        29.92R
SOUTH ST PAUL  PTCLDY    78  73  84 CALM      29.92S
LAKE ELMO      FAIR      73  73 100 CALM      29.94S
$$
MNZ001>005-007-008-013>017-022>024-027-028-020400-
   Northwest Minnesota

CITY           SKY/WX    TMP DP  RH WIND       PRES   REMARKS
BEMIDJI        PTCLDY    64  54  69 CALM      29.93R
HALLOCK        CLEAR     72  55  56 SE7       29.83S
ROSEAU         CLEAR     64  57  77 SE6       29.88R
WARROAD        CLEAR     66  61  82 S5        29.89R
THIEF RVR FALL CLEAR     66  55  68 SE8       29.88R
CROOKSTON      CLEAR     66  57  72 SE9       29.86S
FOSSTON        CLEAR     70  55  60 E5        29.91S
DETROIT LAKES  CLEAR     73  64  73 SE5       29.90F
MOORHEAD       CLEAR     73  68  83 SE5       29.85S
PARK RAPIDS    MOCLDY    74  61  63 SE6       29.92R
MAHNOMEN       FAIR      68  60  76 E5        29.88F
$$
MNZ006-009>011-018-025>026-020400-
   North Central Minnesota

CITY           SKY/WX    TMP DP  RH WIND       PRES   REMARKS
BAUDETTE       CLEAR     64  58  80 CALM      29.90R
FLAG ISLAND    CLEAR     70  61  73 SE5       29.87S
INTL FALLS     CLEAR     56  55  97 CALM      29.92R
WASKISH        CLEAR     63  61  94 CALM      29.91S
BIG FORK       MOCLDY    61  59  94 CALM      29.94S
LONGVILLE      CLOUDY    64  63  94 CALM      29.93S
GRAND RAPIDS     N/A     64  59  82 S3        29.95R
CRANE LAKE     PTCLDY    55  55 100 CALM      29.95R
ORR            PTCLDY    63  55  77 CALM      29.93R
COOK           MOCLDY    63  61  94 CALM      29.95S
WALKER         FAIR      66  63  89 CALM      29.93S
$$
MNZ012-019>021-037-020400-
   Northeast Minnesota

CITY           SKY/WX    TMP DP  RH WIND       PRES   REMARKS
DULUTH         MOCLDY    68  66  93 CALM      29.95R
ELY            PTCLDY    61  55  82 CALM      29.96S
HIBBING        MOCLDY    62  60  93 CALM      29.95R
EVELETH        MOCLDY    61  59  94 CALM      29.97R
DULUTH HARBOR  PTCLDY    64  63  94 NE6       29.92R FOG
TWO HARBORS    PTCLDY    70  64  83 CALM      29.93R
SILVER BAY     PTCLDY    64  63  94 CALM      29.93S
GRAND MARAIS     N/A     61  59  93 CALM      29.92R
G MARAIS ARPRT MOCLDY    55  52  88 N3        29.99S
$$
MNZ029>031-032-039>041-046>048-054>057-064-020400-
   West Central Minnesota

CITY           SKY/WX    TMP DP  RH WIND       PRES   REMARKS
FERGUS FALLS   CLEAR     73  70  88 SE6       29.86S
WHEATON        CLEAR     70  66  88 SE5       29.89R
MORRIS         CLEAR     72  70  94 SE5       29.88S FOG
ALEXANDRIA     PTCLDY    73  69  87 E7        29.90F
ELBOW LAKE     MOCLDY    72  70  93 SE5       29.88R
WADENA         PTCLDY    72  68  88 E5        29.90F
GLENWOOD       MOCLDY    72  70  94 E3        29.90S
APPLETON       PTCLDY    73  70  88 CALM      29.88S FOG
BENSON         MOCLDY    72  68  88 CALM      29.89S FOG
ORTONVILLE     CLEAR     72  70  94 SE6       29.87S
MADISON        PTCLDY    72  70  94 S5        29.87F
WILLMAR        FAIR      75  73  94 SE6       29.92R
$$
MNZ033>034-036-042>043-049>051-058-059-020400-
   Central Minnesota

CITY           SKY/WX    TMP DP  RH WIND       PRES   REMARKS
ST CLOUD       CLOUDY    72  68  87 E5        29.92R
SAUK CENTRE    FAIR      73  70  91 NE6       29.89F
PAYNESVILLE    CLOUDY    72  69  89 E8        29.91S
AITKIN         CLOUDY    73  66  78 CALM      29.92S
PINE RIVER     CLOUDY    70  64  83 CALM      29.96S
BRAINERD       CLOUDY    73  67  81 CALM      29.92S
STAPLES        CLOUDY    72  68  88 E3        29.92S
LONG PRAIRIE   FAIR      70  70 100 NE5       29.91F
LITTLE FALLS   CLOUDY    73  68  83 CALM      29.92S
LITCHFIELD     CLOUDY    73  73 100 CALM      29.92S FOG
BUFFALO        LGT RAIN  76  72  86 CALM      29.94R
MAPLE LAKE     LGT RAIN  77  75  93 E5        29.92F
$$
MNZ037-044-045-052-053-020400-
   East Central Minnesota

CITY           SKY/WX    TMP DP  RH WIND       PRES   REMARKS
PRINCETON      CLOUDY    77  73  88 CALM      29.93R
MORA           CLOUDY    73  70  88 CALM      29.93S
CAMBRIDGE      CLOUDY    79  68  69 CALM      29.90F
RUSH CITY      CLOUDY    74  71  92 CALM      29.92F
MOOSE LAKE     MOCLDY    70  70 100 CALM      29.92S FOG
HINCKLEY       FAIR      72  72 100 CALM      29.93S FOG
CLOQUET        MOCLDY    70  66  88 CALM      29.95R
MCGREGOR       CLOUDY    72  70  94 CALM      29.94S
$$
MNZ071>073-080-081-089-090-097-098-020400-
   Southwest Minnesota

CITY           SKY/WX    TMP DP  RH WIND       PRES   REMARKS
MONTEVIDEO     RAIN      75  73  94 S6        29.89F
GRANITE FALLS  LGT RAIN  73  73  97 CALM      29.90S
CANBY          CLOUDY    74  66  76 SE14      29.88F
MARSHALL       CLOUDY    72  66  83 SW7       29.90F THUNDER
REDWOOD FALLS  CLOUDY    76  71  85 SE7       29.89F
OLIVIA         CLOUDY    72  70  94 CALM      29.90S
PIPESTONE      CLOUDY    73  70  88 SE5       29.90S
WINDOM         MOCLDY    75  70  83 SE5       29.92F
WORTHINGTON    CLOUDY    73  72  94 E7        29.90F THUNDER
JACKSON        CLOUDY    77  72  83 S8        29.92F
TRACY          CLOUDY    75  73  91 CALM      29.91F THUNDER
SLAYTON        TSTM      70  68  92 CALM      29.90F
$$
MNZ065>067-074>077-082>085-091>093-020400-
   South Central Minnesota

CITY           SKY/WX    TMP DP  RH WIND       PRES   REMARKS
MANKATO        PTCLDY    75  70  83 S6        29.93S
NEW ULM        MOCLDY    75  72  88 S6        29.91F
ST JAMES       PTCLDY    73  72  94 CALM      29.92F
FAIRMONT       PTCLDY    73  66  78 S8        29.92S
GLENCOE        MOCLDY    75  73  94 CALM      29.92S
FARIBAULT      PTCLDY    73  72  94 CALM      29.95R
OWATONNA       PTCLDY    77  72  83 S6        29.95R
WASECA         MOCLDY    72  68  88 CALM      29.96R
ALBERT LEA     CLEAR     77  72  83 S7        29.96R
$$
MNZ078>079-086>088-094>096-020400-
   Southeast Minnesota

CITY           SKY/WX    TMP DP  RH WIND       PRES   REMARKS
ROCHESTER      MOCLDY    73  71  93 S9        29.97R
RED WING       CLEAR     73  72  94 CALM      29.93R
STANTON        MOCLDY    74  71  90 CALM      29.93R FOG
DODGE CENTER   MOCLDY    73  72  94 S7        29.96S
WINONA         MOCLDY    77  72  83 CALM      29.94R
AUSTIN         CLEAR     75  72  88 S3        29.97R
PRESTON        MOCLDY    74  71  89 SW5       29.99R
$$
ABBREVIATIONS USED IN REMARKS
   TC - TEMPERATURES IN CELSIUS
  WCI - WIND CHILL INDEX
   HX - HEAT INDEX
  VSB - VISIBILITY
$$



USA.gov is the U.S. government's official web portal to all federal, state and local government web resources and services.